Regional Weather Roundup
Issued by NWS Sioux Falls, SD

Home | Current Version | Previous Version | Graphics & Text | Print | Product List | Glossary On
Versions: 1 2 3 4 5 6 7 8 9 10 11 12 13 14 15 16 17 18 19 20 21 22 23 24 25 26 27 28 29 30 31 32 33 34 35 36 37 38 39 40 41 42 43 44 45 46 47 48 49 50
000
ASUS43 KFSD 240410
RWRFSD

WEATHER ROUNDUP FOR SE SOUTH DAKOTA/SW MINNESOTA/NW IOWA
NATIONAL WEATHER SERVICE SIOUX FALLS SD
1100 PM CDT SAT MAY 23 2015

NOTE: "FAIR" INDICATES FEW OR NO CLOUDS BELOW 12,000 FEET WITH NO
SIGNIFICANT WEATHER AND OR OBSTRUCTIONS TO VISIBILITY.


SDZ038>040-050-052>070-240500-
SOUTHEAST SOUTH DAKOTA

CITY           SKY/WX    TMP DP  RH WIND       PRES   REMARKS
BROOKINGS      MOCLDY    61  52  72 S5        30.09F
CHAMBERLAIN    DRIZZLE   56  55  97 E5        30.05F
HURON          MOCLDY    56  52  86 CALM      30.07S
MADISON        MOCLDY    59  54  82 S3        30.09S
MITCHELL       CLOUDY    59  55  87 E5        30.06F
SIOUX FALLS    LGT RAIN  61  55  81 E3        30.07F
WINNER         CLOUDY    57  53  86 E8        30.04F
YANKTON        CLOUDY    57  54  88 E6        30.06F
$$

MNZ071-072-080-081-089-090-097-098-240500-
SOUTHWEST MINNESOTA

CITY           SKY/WX    TMP DP  RH WIND       PRES   REMARKS
FAIRMONT       CLOUDY    64  48  55 SE5       30.11S
JACKSON        CLOUDY    63  54  72 CALM      30.12S
LUVERNE        CLOUDY    63  54  72 S3        30.10S
MARSHALL       CLOUDY    61  46  59 E9        30.10S
MONTEVIDEO     CLOUDY    61  48  63 SE9       30.12F
REDWOOD FALLS  CLOUDY    62  50  64 NE7       30.12R
TRACY          CLOUDY    63  51  65 SE3       30.11S
WINDOM         CLOUDY    63  52  67 CALM      30.12S
WORTHINGTON    CLOUDY    63  50  63 SE5       30.11S
$$

IAZ001>003-012>014-020>022-031-032-NEZ013-014-SDZ071-240500-
NORTHWEST IOWA

CITY           SKY/WX    TMP DP  RH WIND       PRES   REMARKS
CHEROKEE       CLOUDY    61  57  87 CALM      30.08F
DENISON        CLOUDY    63  61  94 SE5       30.05F
ESTHERVILLE    CLOUDY    63  54  72 S7        30.11R
LE MARS        CLOUDY    63  57  82 CALM      30.08F
ORANGE CITY    CLOUDY    61  55  82 CALM      30.08F
SHELDON        CLOUDY    63  55  77 CALM      30.08F
SIOUX CITY     LGT RAIN  61  57  87 E8        30.06F
SPENCER        CLOUDY    63  56  78 E5        30.10S
STORM LAKE     CLOUDY    63  55  77 SE5       30.09F
$$

ABBREVIATIONS USED IN REMARKS
   TC - TEMPERATURE IN CELSIUS
  WCI - WIND CHILL INDEX
   HX - HEAT INDEX
  VSB - VISIBILITY



USA.gov is the U.S. government's official web portal to all federal, state and local government web resources and services.